Regional Weather Roundup
Issued by NWS Kansas City/Pleasant Hill, MO

Home | Current Version | Previous Version | Graphics & Text | Print | Product List | Glossary Off
Versions: 1 2 3 4 5 6 7 8 9 10 11 12 13 14 15 16 17 18 19 20 21 22 23 24 25 26 27 28 29 30 31 32 33 34 35 36 37 38 39 40 41 42 43 44 45 46 47 48 49 50

931
ASUS43 KEAX 041010
RWREAX

WEATHER ROUNDUP FOR EASTERN KANSAS AND NORTHWEST MISSOURI
NATIONAL WEATHER SERVICE KANSAS CITY/PLEASANT HILL MO
400 AM CST SUN DEC 04 2016

KSZ040-057-103>105-MOZ028-029-037-043-041100-
...KANSAS CITY METROPOLITAN AREA...

CITY           SKY/WX    TMP DP  RH WIND       PRES   REMARKS
K.C. INTL      LGT RAIN  40  37  89 SE5       30.02F FOG
K.C. DOWNTOWN  LGT RAIN  41  40  96 S3        30.03F
LEES SUMMIT    LGT RAIN  39  38  96 SE13      30.02F WCI  31
OLATHE - IXD   LGT RAIN  39  38  96 S9        30.03F FOG     WCI  33
OLATHE - OJC   LGT RAIN  38  37  97 S9        30.03F WCI  31
LAWRENCE       LGT RAIN  40  40 100 SE7       30.04S FOG

$$

MOZ001>008-011>017-020>025-030>033-038>040-044>046-053-054-041100-
...NORTHERN AND CENTRAL MISSOURI...

CITY           SKY/WX    TMP DP  RH WIND       PRES   REMARKS
ST. JOSEPH     LGT RAIN  40  38  93 SE5       30.04F FOG
MOSBY          LGT RAIN  39  37  93 SE7       30.04F WCI  34
WARRENSBURG    DRIZZLE   37  36  93 E7        30.06F WCI  32
WHITEMAN AFB   DRIZZLE   37  37 100 SE6       30.04F WCI  33
CLINTON        LGT RAIN  39  37  93 SE3       30.06F
SEDALIA        LGT RAIN  38  36  92 E8        30.06F WCI  32
WARSAW         NOT AVBL
CHILLICOTHE      N/A     39  37  92 SE6       30.07F WCI  35
KIRKSVILLE     MIX PCPN  35  34  96 SE9       30.09F FOG     WCI  28

$$

MOZ041-047>049-056>058-063>065-088>090-097-041100-
...EASTERN AND SOUTHERN MISSOURI...

CITY           SKY/WX    TMP DP  RH WIND       PRES   REMARKS
ST. LOUIS INTL LGT RAIN  39  33  79 E10       30.13F WCI  32
SPIRIT OF STL  CLOUDY    38  36  92 E5        30.12F WCI  34
COLUMBIA       LGT RAIN  37  35  92 E8        30.09F FOG     WCI  31
JEFFERSON CITY CLOUDY    38  35  89 E6        30.10F FOG     WCI  33
ROLLA          CLOUDY    36  35  96 E6        30.06S FOG     WCI  31
OSAGE BEACH    MIX PCPN  37  36  96 E5        30.08F FOG     WCI  33
SPRINGFIELD    LGT RAIN  38  36  92 SE9       30.02F FOG     WCI  31
BRANSON        LGT RAIN  37  37 100 SE9       30.03F WCI  31
JOPLIN         LGT RAIN  40  40 100 E5        30.02F FOG
WEST PLAINS    CLOUDY    37  36  96 E7        30.06S WCI  32

$$

IAZ060-094-KSZ022-034>040-054-083-096-NEZ052-066-093-041100-
...KANSAS...SOUTHEAST NEBRASKA AND IOWA...

CITY           SKY/WX    TMP DP  RH WIND       PRES   REMARKS
TOPEKA         LGT RAIN  40  38  93 CALM      30.04S FOG
MANHATTAN      LGT RAIN  40  38  93 CALM      30.03F
EMPORIA        LGT RAIN  39  39 100 NW5       30.03S FOG
CHANUTE        LGT RAIN  40  39  97 SE3       30.02F FOG
WICHITA        LGT RAIN  41  40  96 N3        30.03S
OMAHA          CLOUDY    35  31  85 SW3       30.01F
LINCOLN        CLOUDY    33  32  96 W6        30.03F WCI  28
FALLS CITY     RAIN      39  39 100 SW9       30.03F WCI  33
LAMONI         LGT RAIN  37  35  92 S8        30.04F WCI  31
DES MOINES     LGT SNOW  37  35  92 S10       30.04F FOG     WCI  30

$$





USA.gov is the U.S. government's official web portal to all federal, state and local government web resources and services.